Flag for Germany Weather past 2 weeks in Neu-Isenburg, Hesse, Germany

Now
48 °F

Light rain. Overcast.


Feels Like: 43 °F
Forecast: 42 / 53 °F
Wind: 14 mph from West

Location: Frankfurt / M-Flughafen

Current Time: Mar 30, 2015 at 2:40:19 AM

Latest Report: Mar 30, 2015 at 2:00 AM


Visibility: 31 mi

Pressure: 29.50 "Hg

Humidity: 71%

Dew point: 39 °F

Location of Neu-IsenburgLocation

Historic Weather in Neu-Isenburg — Graph

°F

Neu-Isenburg temperature yesterday

Maximum temperature yesterday: 55 °F (at 10:00 PM)
Minimum temperature yesterday: 49 °F (at 12:00 AM)
Average temperature yesterday: 52 °F

Past Weeks' High & Low Weather Summary

 TemperatureHumidityPressure
High64 °F (Mar 18, 4:00 PM)97% (Mar 21, 6:00 AM)30.31 "Hg (Mar 21, 6:00 AM)
Low29 °F (Mar 24, 5:00 AM)32% (Mar 26, 5:00 PM)29.38 "Hg (Mar 29, 10:00 PM)
Average46 °F70%30.06 "Hg
* Reported Midnight between Mar 14 and Mar 15 — Mar 30 1:00 AM, Neu-Isenburg, Weather by CustomWeather, © 2015

Note: Actual official high and low records may vary slightly from our data, if they occured in-between our weather recording intervals... More about our weather records

Advertising

Neu-Isenburg weather history for previous 24 hours

 ConditionsComfort  
Time TempWeatherWind HumidityBarometerVisibility
1:00 AM
Mon, Mar 30
48 °FLight rain. Overcast.13 mph74%29.47 "Hg25 mi
12:00 AM49 °FRain. Overcast.10 mph81%29.47 "Hg9 mi
10:00 PM
Sun, Mar 29
55 °FLight rain. Overcast.16 mph75%29.38 "Hg25 mi
9:00 PM53 °FLight rain. Overcast.13 mph83%29.41 "Hg25 mi
8:00 PM52 °FLight rain. Overcast.15 mph89%29.44 "Hg12 mi
7:00 PM54 °FLight rain. Overcast.14 mph81%29.47 "Hg11 mi
6:00 PM54 °FLight rain. Overcast.10 mph79%29.50 "Hg10 mi
4:00 PM53 °FLight rain. Overcast.10 mph78%29.58 "Hg12 mi
3:00 PM53 °FLight rain. Overcast.10 mph78%29.64 "Hg12 mi
2:00 PM52 °FLight rain. Overcast.9 mph81%29.68 "Hg10 mi
1:00 PM51 °FLight rain. Overcast.8 mph82%29.71 "Hg9 mi
12:00 PM51 °FLight rain. Overcast.9 mph81%29.73 "Hg11 mi
11:00 AM51 °FLight rain. Overcast.9 mph83%29.75 "Hg11 mi
10:00 AM52 °FLight rain. Overcast.8 mph81%29.77 "Hg9 mi
9:00 AM54 °FOvercast.8 mph76%29.78 "Hg16 mi
8:00 AM53 °FOvercast.9 mph76%29.79 "Hg28 mi
7:00 AM53 °FOvercast.6 mph79%29.79 "Hg28 mi
6:00 AM52 °FOvercast.7 mph85%29.81 "Hg28 mi
5:00 AM53 °FOvercast.8 mph83%29.82 "Hg28 mi
4:00 AM53 °FOvercast.6 mph83%29.83 "Hg16 mi
3:00 AM49 °FOvercast.8 mph88%29.86 "Hg16 mi
Weather by CustomWeather, © 2015

See weather overviewHow to use our weather pages